Weather History for Yakima, WA

Change the Weather History Date:

Tuesday, February 12, 2013

  Actual Average Record
Temperature  
Mean Temperature 45 °F 36 °F  
Max Temperature 58 °F 45 °F 67 °F (1977)
Min Temperature 31 °F 26 °F 3 °F (1949)
Degree Days  
Heating Degree Days 20 30  
Month to date heating degree days 297 365  
Since 1 July heating degree days 3566 4083  
Cooling Degree Days 0 0  
Month to date cooling degree days 0 0  
Year to date cooling degree days 0 0  
Moisture  
Dew Point 31 °F    
Average Humidity 63    
Maximum Humidity 85    
Minimum Humidity 40    
Precipitation  
Precipitation 0.00 in 0.03 in 0.22 in (1979)
Month to date precipitation T 0.35  
Year to date precipitation 0.10 1.49  
Snow  
Snow 0.00 in 0.10 in 1.50 in (1950)
Month to date snowfall 0.0 1.3  
Year to date snowfall 1.1 6.6  
Since 1 July snowfall 15.3 19.6  
Snow Depth 0.00 in    
Sea Level Pressure  
Sea Level Pressure 30.29 in    
Wind  
Wind Speed 2 mph (SSE)    
Max Wind Speed 12 mph    
Max Gust Speed 21 mph    
Visibility 9 miles    
Events      
T = Trace of Precipitation, MM = Missing Value Source: NWS Daily Summary

Daily Weather History Graph

Daily Weather History Graph

Search for Another Location

Airport:

Trip Planner

Search our weather history database for the weather conditions in past years. The results will help you decide how hot, cold, wet, or windy it might be!

Date:

Astronomy

Feb. 12, 2013 Rise Set
Actual Time 7:10 AM PST 5:23 PM PST
Civil Twilight 6:38 AM PST 5:54 PM PST
Nautical Twilight 6:03 AM PST 6:30 PM PST
Astronomical Twilight 5:28 AM PST 7:05 PM PST
Moon 7:57 AM PST (2/12) 8:44 PM PST (2/12)
Length of Visible Light 11h 16m
Length of Day
10h 13m
Waxing Crescent, 8% of the Moon is Illuminated
Feb 12
Waxing Crescent
Feb 17
First Quarter
Feb 25
Full
Mar 4
Last Quarter
Mar 11
New

Hourly Weather History & Observations

Time (PST) Temp. Windchill Dew Point Humidity Pressure Visibility Wind Dir Wind Speed Gust Speed Precip Events Conditions
12:53 AM 32.0 °F - 28.0 °F 85% 30.28 in 6.0 mi Calm Calm - N/A   Clear
1:53 AM 30.9 °F - 27.0 °F 85% 30.28 in 7.0 mi Calm Calm - N/A   Scattered Clouds
2:53 AM 32.0 °F - 27.0 °F 82% 30.28 in 6.0 mi Calm Calm - N/A   Haze
3:53 AM 32.0 °F 28.7 °F 28.0 °F 85% 30.29 in 7.0 mi WSW 3.5 mph - N/A   Partly Cloudy
4:53 AM 34.0 °F - 28.9 °F 82% 30.30 in 7.0 mi Calm Calm - N/A   Clear
5:53 AM 33.1 °F - 28.0 °F 82% 30.31 in 7.0 mi Calm Calm - N/A   Clear
6:53 AM 34.0 °F 31.0 °F 28.9 °F 82% 30.32 in 10.0 mi SW 3.5 mph - N/A   Mostly Cloudy
7:53 AM 34.0 °F - 28.9 °F 82% 30.34 in 10.0 mi Calm Calm - N/A   Scattered Clouds
8:53 AM 35.1 °F - 30.0 °F 82% 30.35 in 10.0 mi Calm Calm - N/A   Scattered Clouds
9:53 AM 37.9 °F - 30.9 °F 76% 30.35 in 10.0 mi Calm Calm - N/A   Scattered Clouds
10:53 AM 39.9 °F 36.7 °F 32.0 °F 73% 30.35 in 10.0 mi WNW 4.6 mph - N/A   Partly Cloudy
11:53 AM 44.1 °F - 33.1 °F 65% 30.32 in 10.0 mi Calm Calm - N/A   Partly Cloudy
12:53 PM 50.0 °F - 33.1 °F 52% 30.32 in 10.0 mi SSE 3.5 mph - N/A   Partly Cloudy
1:53 PM 55.0 °F - 33.1 °F 43% 30.30 in 10.0 mi ESE 3.5 mph - N/A   Scattered Clouds
2:53 PM 55.9 °F - 33.1 °F 42% 30.29 in 10.0 mi ESE 3.5 mph - N/A   Clear
3:53 PM 57.9 °F - 33.1 °F 39% 30.27 in 10.0 mi SSE 3.5 mph - N/A   Scattered Clouds
4:53 PM 53.1 °F - 35.1 °F 50% 30.27 in 10.0 mi SSE 5.8 mph - N/A   Partly Cloudy
5:53 PM 45.0 °F - 33.1 °F 63% 30.27 in 10.0 mi Calm Calm - N/A   Clear
6:53 PM 44.1 °F - 32.0 °F 63% 30.26 in 10.0 mi Calm Calm - N/A   Mostly Cloudy
7:53 PM 44.1 °F - 32.0 °F 63% 30.25 in 10.0 mi Calm Calm - N/A   Clear
8:53 PM 42.1 °F - 32.0 °F 67% 30.24 in 10.0 mi Calm Calm - N/A   Clear
9:53 PM 42.1 °F 37.7 °F 33.1 °F 70% 30.24 in 10.0 mi NNE 6.9 mph - N/A   Clear
10:53 PM 44.1 °F 40.8 °F 33.1 °F 65% 30.23 in 10.0 mi NNW 5.8 mph - N/A   Clear
11:53 PM 43.0 °F 41.3 °F 33.1 °F 68% 30.22 in 10.0 mi Variable 3.5 mph - N/A   Clear